Weather Roundup
Issued by NWS Chicago, IL

Home | Current Version | Previous Version | Graphics & Text | Print | Product List | Glossary On
Versions: 1 2 3 4 5 6 7 8 9 10 11 12 13 14 15 16 17 18 19 20 21 22 23 24 25 26 27 28 29 30 31 32 33 34 35 36 37 38 39 40 41 42 43 44 45 46 47 48 49 50
000
NZUS59 KLOT 070110
HRRLOT

CHICAGO AREA WEATHER ROUNDUP
NATIONAL WEATHER SERVICE CHICAGO/ROMEOVILLE IL
700 PM CST FRI MAR 06 2015

NOTE: "FAIR" INDICATES FEW OR NO CLOUDS BELOW 12,000 FEET WITH NO
SIGNIFICANT WEATHER AND/OR OBSTRUCTIONS TO VISIBILITY.

* THESE STATIONS ARE NOT UNDER NWS QUALITY CONTROL. THEY ALSO MAY NOT
  REPORT WEATHER SUCH AS PRECIPITATION OR FOG.

ILZ005-006-012>014-019>023-070200-
NORTHEAST ILLINOIS

CITY           SKY/WX    TMP DP  RH WIND       PRES   REMARKS
OHARE          PTCLDY    25  16  68 SW13G23   30.17S WCI  14
MIDWAY         PTCLDY    25  15  66 SW15      30.20S WCI  13
AURORA           N/A     23  15  71 S10       30.19S WCI  12
LANSING*       CLEAR     22  15  75 SW16      30.22S WCI   8
JOLIET*        CLEAR     24  17  75 S9        30.22S WCI  14
WAUKEGAN       CLEAR     24  17  74 SW18      30.13S WCI  10
DUPAGE AIRPORT CLEAR     23  16  74 S14       30.17S WCI  11
WHEELING       CLEAR     25  16  68 S13       30.18S WCI  14
KANKAKEE*      CLEAR     21  15  77 S14       30.25S WCI   8
MORRIS*        CLEAR     22  18  84 S9        30.21S WCI  12
LEWIS AIRPORT* CLEAR     23  17  77 S14       30.21R WCI  11
NORTHERLY IS     N/A     25  15  66 SW12        N/A  WCI  14
$$

WIZ051-052-058>065-066-070>072-070200-
SOUTHEAST WISCONSIN

CITY           SKY/WX    TMP DP  RH WIND       PRES   REMARKS
MILWAUKEE      PTCLDY    25  16  68 SW15      30.11R WCI  13
KENOSHA*       CLEAR     26  17  68 SW16      30.12S WCI  14
RACINE*        CLEAR     25  16  68 SW14      30.14R WCI  13
BURLINGTON     CLEAR     22  16  77 SW14      30.11S WCI  10
WAUKESHA       CLEAR     25  16  68 SW15      30.10S WCI  12
WEST BEND      CLEAR     25  14  63 SW10      30.08R WCI  15
$$

INZ001>003-010>013-019-020-070200-
NORTHWEST INDIANA

CITY           SKY/WX    TMP DP  RH WIND       PRES   REMARKS
GARY*          CLEAR     25  12  58 SW16      30.22F WCI  12
MICHIGAN CITY* NOT AVBL
RENSSELAER*    NOT AVBL
VALPARAISO     CLEAR     21  12  68 SW13      30.23S WCI   9
$$

LMZ740>746-070200-
SOUTHERN LAKE MICHIGAN

STATION/POSITION TIME  SKY/WX   TEMP WIND        PRES    VSBY
                                AIR  DIR/SP/G
                 (UTC)          (F)  (DEG/KT/KT) (MB)    (MI)
HARRISON CRIB    0100            25  200/ 23/ 29   N/A
BURNHAM HARBOR   0100            25  230/  9/ 16   N/A
CALUMET HARBOR   0100            24  200/ 15/ 20 1021.2F
BURNS HARBOR     NOT AVBL
MICHIGAN CITY    0100            23  170/ 16/ 19   N/A
$$

ABBREVIATIONS USED IN REMARKS
   TC - TEMPERATURE IN CELSIUS
  WCI - WIND CHILL INDEX
   HX - HEAT INDEX
  VSB - VISIBILITY
$$


USA.gov is the U.S. government's official web portal to all federal, state and local government web resources and services.